Weather History for Phoenix-Mesa Gateway Airport, AZ

Change the Weather History Date:

Saturday, November 9, 2013

  Actual Average Record
Temperature  
Mean Temperature 66 °F -  
Max Temperature 82 °F 73 °F 87 °F (2005)
Min Temperature 51 °F 49 °F 39 °F (2000)
Cooling Degree Days 2    
Growing Degree Days 16 (Base 50)    
Moisture  
Dew Point 33 °F    
Average Humidity 35    
Maximum Humidity 47    
Minimum Humidity 15    
Precipitation  
Precipitation 0.00 in - - ()
Sea Level Pressure  
Sea Level Pressure 30.05 in    
Wind  
Wind Speed 5 mph (ESE)    
Max Wind Speed 8 mph    
Max Gust Speed -    
Visibility 13 miles    
Events      
Averages and records for this station are not official NWS values.
T = Trace of Precipitation, MM = Missing Value Source: NWS Daily Summary

Daily Weather History Graph

Daily Weather History Graph

Search for Another Location

Airport:

Trip Planner

Search our weather history database for the weather conditions in past years. The results will help you decide how hot, cold, wet, or windy it might be!

Date:

Astronomy

Nov. 09, 2013 Rise Set
Actual Time 6:52 AM MST 5:27 PM MST
Civil Twilight 6:26 AM MST 5:54 PM MST
Nautical Twilight 5:56 AM MST 6:23 PM MST
Astronomical Twilight 5:27 AM MST 6:52 PM MST
Moon 12:35 PM MST (11/9) 11:57 PM MST (11/9)
Length of Visible Light 11h 27m
Length of Day
10h 35m
Waxing Crescent, 45% of the Moon is Illuminated
Nov 9
Waxing Crescent
Nov 9
First Quarter
Nov 17
Full
Nov 25
Last Quarter
Dec 2
New

Hourly Weather History & Observations

Time (MST) Temp. Dew Point Humidity Pressure Visibility Wind Dir Wind Speed Gust Speed Precip Events Conditions
12:15 AM 57.2 °F 33.8 °F 41% 30.02 in 10.0 mi ESE 5.8 mph - N/A   Clear
12:35 AM 55.4 °F 35.6 °F 47% 30.02 in 10.0 mi SE 6.9 mph - N/A   Clear
12:55 AM 57.2 °F 33.8 °F 41% 30.02 in 10.0 mi SE 5.8 mph - N/A   Clear
1:15 AM 57.2 °F 33.8 °F 41% 30.02 in 10.0 mi ESE 8.1 mph - N/A   Clear
1:35 AM 57.2 °F 33.8 °F 41% 30.02 in 10.0 mi ESE 8.1 mph - N/A   Clear
1:55 AM 55.4 °F 32.0 °F 41% 30.02 in 10.0 mi East 5.8 mph - N/A   Clear
2:15 AM 55.4 °F 32.0 °F 41% 30.02 in 10.0 mi ESE 6.9 mph - N/A   Clear
2:35 AM 53.6 °F 33.8 °F 47% 30.02 in 10.0 mi ESE 5.8 mph - N/A   Clear
2:55 AM 53.6 °F 33.8 °F 47% 30.02 in 10.0 mi ESE 5.8 mph - N/A   Clear
3:15 AM 51.8 °F 32.0 °F 47% 30.02 in 10.0 mi East 6.9 mph - N/A   Clear
3:35 AM 51.8 °F 32.0 °F 47% 30.03 in 10.0 mi East 5.8 mph - N/A   Clear
3:55 AM 51.8 °F 32.0 °F 47% 30.03 in 10.0 mi East 6.9 mph - N/A   Clear
4:15 AM 53.6 °F 32.0 °F 44% 30.03 in 10.0 mi East 8.1 mph - N/A   Clear
4:35 AM 53.6 °F 32.0 °F 44% 30.04 in 10.0 mi East 8.1 mph - N/A   Clear
4:47 AM 53.6 °F 32.0 °F 44% 30.04 in 20.0 mi East 6.9 mph - N/A   Clear
4:55 AM 51.8 °F 32.0 °F 47% 30.04 in 10.0 mi East 6.9 mph - N/A   Clear
5:15 AM 51.8 °F 32.0 °F 47% 30.05 in 10.0 mi East 5.8 mph - N/A   Clear
5:47 AM 53.6 °F 33.8 °F 47% 30.06 in 20.0 mi East 5.8 mph - N/A   Clear
6:47 AM 53.6 °F 33.8 °F 47% 30.07 in 20.0 mi ESE 5.8 mph - N/A   Scattered Clouds
7:47 AM 55.4 °F 33.8 °F 44% 30.09 in 45.0 mi East 5.8 mph - N/A   Partly Cloudy
8:47 AM 60.8 °F 33.8 °F 36% 30.12 in 45.0 mi SE 5.8 mph - N/A   Partly Cloudy
9:47 AM 68.0 °F 33.8 °F 28% 30.12 in 45.0 mi ENE 3.5 mph - N/A   Partly Cloudy
10:47 AM 73.4 °F 33.8 °F 23% 30.11 in 45.0 mi Calm Calm - N/A   Partly Cloudy
11:47 AM 75.2 °F 33.8 °F 22% 30.10 in 35.0 mi Calm Calm - N/A   Partly Cloudy
12:47 PM 78.8 °F 33.8 °F 20% 30.07 in 35.0 mi West 4.6 mph - N/A   Clear
1:47 PM 80.6 °F 33.8 °F 18% 30.04 in 35.0 mi Calm Calm - N/A   Clear
2:47 PM 80.6 °F 28.4 °F 15% 30.03 in 35.0 mi Calm Calm - N/A   Clear
3:47 PM 82.4 °F 30.2 °F 15% 30.02 in 35.0 mi WNW 3.5 mph - N/A   Clear
4:47 PM 80.6 °F 28.4 °F 15% 30.02 in 20.0 mi NW 4.6 mph - N/A   Clear
5:47 PM 78.8 °F 32.0 °F 18% 30.02 in 20.0 mi WNW 3.5 mph - N/A   Clear
6:47 PM 73.4 °F 33.8 °F 23% 30.03 in 20.0 mi North 3.5 mph - N/A   Clear
7:47 PM 68.0 °F 30.2 °F 24% 30.05 in 20.0 mi Calm Calm - N/A   Clear
7:55 PM 68.0 °F 30.2 °F 24% 30.05 in 10.0 mi Calm Calm - N/A   Clear
8:15 PM 64.4 °F 32.0 °F 30% 30.05 in 10.0 mi Calm Calm - N/A   Clear
8:35 PM 62.6 °F 32.0 °F 32% 30.05 in 10.0 mi Calm Calm - N/A   Clear
8:47 PM 64.4 °F 32.0 °F 30% 30.05 in 20.0 mi Calm Calm - N/A   Clear
8:55 PM 62.6 °F 32.0 °F 32% 30.05 in 10.0 mi Calm Calm - N/A   Clear
9:15 PM 64.4 °F 32.0 °F 30% 30.05 in 10.0 mi Calm Calm - N/A   Clear
9:35 PM 62.6 °F 32.0 °F 32% 30.06 in 10.0 mi Calm Calm - N/A   Clear
9:47 PM 62.6 °F 33.8 °F 34% 30.06 in 20.0 mi Calm Calm - N/A   Clear
9:55 PM 62.6 °F 33.8 °F 34% 30.07 in 10.0 mi Calm Calm - N/A   Clear
10:15 PM 60.8 °F 33.8 °F 36% 30.07 in 10.0 mi SSW 3.5 mph - N/A   Clear
10:35 PM 60.8 °F 33.8 °F 36% 30.07 in 10.0 mi Calm Calm - N/A   Clear
10:47 PM 60.8 °F 33.8 °F 36% 30.07 in 20.0 mi Calm Calm - N/A   Clear
10:55 PM 57.2 °F 32.0 °F 38% 30.07 in 10.0 mi Calm Calm - N/A   Clear
11:15 PM 57.2 °F 32.0 °F 38% 30.07 in 10.0 mi Calm Calm - N/A   Clear
11:35 PM 57.2 °F 32.0 °F 38% 30.08 in 10.0 mi Calm Calm - N/A   Clear
11:47 PM 57.2 °F 32.0 °F 38% 30.07 in 20.0 mi East 3.5 mph - N/A   Clear
11:55 PM 57.2 °F 32.0 °F 38% 30.07 in 10.0 mi East 3.5 mph - N/A   Clear